Regional Weather Roundup
Issued by NWS

Home | Current Version | Previous Version | Text Only | Print | Product List | Glossary On
Versions: 1 2 3 4 5 6 7 8 9 10 11 12 13 14 15 16 17 18 19 20 21 22 23 24 25 26 27 28 29 30 31 32 33 34 35 36 37 38 39 40 41 42 43 44 45 46 47 48 49 50
000
ASUS44 KEWX 211610
RWRTX
SOUTH TEXAS REGIONAL WEATHER ROUNDUP
NATIONAL WEATHER SERVICE AUSTIN/SAN ANTONIO TX
1100 AM CDT THU AUG 21 2014

NOTE: "FAIR" INDICATED FEW OR NO CLOUDS BELOW 12,000 FEET WITH NO
SIGNIFICANT WEATHER AND/OR OBSTRUCTIONS TO VISIBILITY.

* - THESE STATIONS ARE NOT NWS OR FAA STATIONS...AND ARE NOT SUBJECT
    TO NWS AND FAA QUALITY CONTROL.

TXZ171-172-183>190-211700-
TEXAS HILL COUNTRY AND EDWARDS PLATEAU

CITY           SKY/WX    TMP DP  RH WIND       PRES   REMARKS
JUNCTION       MOSUNNY   84  69  60 S13       30.07S
*LLANO         SUNNY     90  64  43 SW14G21   30.08F HX  91
BURNET         SUNNY     88  66  48 S9G23     30.09S HX  90
*HORSESHOE BAY SUNNY     89  65  44 S9G17     30.07R HX  90
*KERRVILLE     SUNNY     83  69  61 S14       30.09S
*FREDERICKSBRG SUNNY     85  64  49 S13G21    30.09S
*ROCKSPRINGS   MOSUNNY   81  70  69 SE13      30.11S
*BOERNE STAGE  SUNNY     84  64  51 S16G22    30.09S
*CASTROVILLE   MOSUNNY   89  65  45 S14G23    30.07S HX  90
HONDO          SUNNY     87  68  52 S17       30.07S HX  90
*UVALDE        SUNNY     85  73  65 SE13G18   30.04S HX  92
DEL RIO        CLOUDY    84  71  65 SE14      30.01R
LAUGHLIN AFB   CLOUDY    82  72  70 SE13      30.02S
CARRIZO SPRGS  SUNNY     88  68  51 S9G20     30.00R HX  91
$$

TXZ173-191>194-202-209-217>225-228-211700-
CENTRAL AND SOUTH CENTRAL TEXAS

CITY           SKY/WX    TMP DP  RH WIND       PRES   REMARKS
GEORGETOWN     SUNNY     90  68  48 S17G26    30.07S HX  93
AUSTIN/BERGSTM MOSUNNY   90  69  50 S16G23    30.05F HX  94
AUSTIN/MABRY   SUNNY     89  69  51 S8G21     30.07R HX  93
*AUSTIN/EXEC   SUNNY     88  68  51 SW17G24   30.07S HX  91
*LAGO VISTA    SUNNY     89  65  45 S14G22    30.09S HX  90
SAN MARCOS     SUNNY     90  70  51 S17G23    30.08S HX  95
NEW BRAUNFELS  SUNNY     89  69  51 S17G30    30.06R HX  93
RANDOLPH AFB   MOSUNNY   89  68  50 S16G24    30.07S HX  92
PT SAN ANTONIO DRIZZLE   90  70  51 S15G24    30.05R HX  95
SAN ANTONIO    MOSUNNY   89  70  53 S20       30.07R HX  94
STINSON FIELD  SUNNY     89  70  53 S16G25    30.04S HX  94
*PLEASANTON    MOSUNNY   90  69  50 SE13G23   30.05S HX  94
*LA GRANGE     SUNNY     92  73  54 S16       30.05F HX 100
*GIDDINGS      MOSUNNY   89  69  52 S9G22     30.11S HX  93
*GONZALES      MOSUNNY   91  72  54 S15G21    30.06S HX  98
$$

TXZ163>164-176>182-195>201-210>213-226-227-235-211700-
SOUTHEAST TEXAS

CITY           SKY/WX    TMP DP  RH WIND       PRES   REMARKS
COLLEGE STN    SUNNY     89  70  53 S14       30.08R HX  94
*BRYAN         MOSUNNY   88  74  63 S9G18     30.07S HX  97
*CALDWELL      SUNNY     88  72  58 S13       30.10S HX  94
*CROCKETT      PTSUNNY   90  79  70 SW9       30.12S HX 105
*BRENHAM       SUNNY     91  71  52 S16       30.09R HX  97
HUNTSVILLE     MOSUNNY   88  75  65 S13G22    30.10S HX  97
CONROE         MOSUNNY   89  74  60 S10       30.10S HX  98
HOUSTON BUSH   MOSUNNY   89  74  60 S12G17    30.09S HX  98
HOUSTON HOBBY  MOSUNNY   89  74  60 S15       30.09S HX  98
*HOUSTON SW AP SUNNY     90  74  58 MISG      30.09F HX  98
PEARLAND       SUNNY     90  73  57 S12G21    30.10F HX  98
HOUSTON HOOKS  SUNNY     88  75  65 S12G17    30.09S HX  97
ELLINGTON FLD  PTSUNNY   90  73  58 SW10      30.11R HX  98
SUGAR LAND     PTSUNNY   90  76  63 S12       30.09S HX 101
*HOUSTON EXEC  MOSUNNY   91  73  55 SE14G21   30.10S HX 100
*CLEVELAND MUN MOSUNNY   88  78  72 S9        30.11R HAZE    HX 101
*WHARTON       MOSUNNY   92  71  50 S15       30.09S HX  99
$$

TXZ214>216-236>238-211700-
THE UPPER TEXAS COAST

CITY           SKY/WX    TMP DP  RH WIND       PRES   REMARKS
*ORANGE        MOSUNNY   90  76  63 S13       30.11S HX 102
PORT ARTHUR    PTSUNNY   91  75  59 S14       30.10R HX 101
GALVESTON      MOSUNNY   89  78  70 S14       30.11S HX 103
ANGLETON       SUNNY     89  76  65 S15       30.09S HX 100
*BAY CITY      MOSUNNY   93  76  58 S13       30.09R HX 105
PALACIOS       SUNNY     89  76  65 S16       30.09  HX 100
$$

TXZ229>234-239>247-211700-
TEXAS COASTAL BEND AND RIO GRANDE PLAINS

CITY           SKY/WX    TMP DP  RH WIND       PRES   REMARKS
VICTORIA       MOSUNNY   94  72  48 S23       30.07S HX 102
*BEEVILLE      MOSUNNY   91  71  51 S20G26    30.06R HX  98
ROCKPORT       MOSUNNY   88  76  67 S15G23    30.06S HX  99
*PORT ARANSAS  SUNNY     86  78  77 S9        30.07R HX  98
*PORT LAVACA   MOSUNNY   91  73  55 S16       30.07S HX  99
*INGLESIDE     PTSUNNY   89  76  63 S21G28    30.06S HX 100
CORPUS CHRISTI MOSUNNY   90  74  59 S23       30.05S HX  99
CORPUS NAS     MOSUNNY   90  78  68 S18G30    30.05S HX 104
*ROBSTOWN      NOT AVBL
ALICE          SUNNY     92  72  51 S22G30    30.03S HX  99
KINGSVILLE NAS MOSUNNY   93  75  55 S25G31    30.03F HX 104
COTULLA        SUNNY     89  67  47 S13G23    30.02S HX  92
*FAITH RANCH   SUNNY     86  68  54 S13G21    30.01R
LAREDO         SUNNY     91  69  48 S20       30.02F HX  95
$$

TXZ248>255-211700-
DEEP SOUTH TEXAS

CITY           SKY/WX    TMP DP  RH WIND       PRES   REMARKS
BROWNSVILLE    MOSUNNY   93  74  53 S24       30.05R HX 103
PORT ISABEL    MOSUNNY   93  74  53 S21G26    30.05R HX 103
*SOUTH PADRE   SUNNY     88  77  70 SE7       30.06S HX 100
HARLINGEN      SUNNY     93  73  52 S22G29    30.03S HX 102
*HEBBRONVILLE  SUNNY     90  66  44 SE23      30.03S HX  92
MCALLEN        SUNNY     90  72  55 S20G26    30.04R HX  97
*WESLACO       PTSUNNY   92  72  51 S16G23    30.04S HX  99
FALFURRIAS     MOSUNNY   96  82  64 S22G30    30.03S HX 120
EDINBURG       MOSUNNY   92  70  48 S17G26    30.04S HX  98
*ZAPATA        MOSUNNY   91  65  42 S14G23    29.99S HX  92
$$

TXZ213>215-236>238-242>244-246-247-251-254-255-211700-
CMAN STATIONS

STATION/POSITION TIME  TEMP    WIND        PRES    WAVE
                       AIR SEA DIR/SP/G            HT/PER
                 (UTC) (F)     (DEG/KT/KT) (MB)    (FT/S)
SABINE PASS      1600   88 87  220/  7/ 15 1019.8
SEA RIM ST PARK  1600   87     210/ 11/ 13 1020.1
NORTH JETTY/GLS  1600   86 86  230/ 15/ 17   N/A
EAGLE POINT      1600   87 86  210/ 15/ 17 1019.2
MORGANS POINT    1600   89     180/  7/ 12 1019.1
MISSION/ARANSAS  1500   83     160/ 16     1019.0
PORT O`CONNOR    1600          160/ 14/ 16   N/A
PORT ARANSAS     1600   83 84  150/ 10/ 11 1018.8
MALAQUITE BEACH  1600   81 80  150/  9/ 12 1017.5
BAFFIN BAY       1600   84 80  160/ 14/ 19 1017.8
PORT ISABEL      1600   86 79  140/  9/ 14 1018.2
$$

GMZ080-GMZ150>470-211700-
OFFSHORE BUOY REPORTS

STATION/POSITION TIME  TEMP    WIND        PRES    WAVE
                       AIR SEA DIR/SP/G            HT/PER
                 (UTC) (F)     (DEG/KT/KT) (MB)    (FT/S)
20 E GALVESTON   1600   86 86  200/ 12/ 14 1019.3
90 E PT ARANSAS  1600   85 85  160/ 12/ 14 1019.4    4/ 6
35 NE PT MANSFLD 1600   85 86  170/ 16/ 17 1017.7    4/ 7
200 E PT ISABEL  1600   86 86  140/ 12/ 14 1019.3    3/ 5
$$



USA.gov is the U.S. government's official web portal to all federal, state and local government web resources and services.